Flag for United Kingdom Weather past 2 weeks in Whitstable, England, United Kingdom

Now
46 °F

Cool.


Feels Like: 41 °F
Forecast: 37 / 46 °F
Wind: 9 mph from West

Location: Manston

Current Time: Feb 27, 2015 at 3:57:54 PM

Latest Report: Feb 27, 2015 at 3:00 PM


Visibility: 19 mi

Pressure: 30.14 "Hg

Humidity: 58%

Dew point: 32 °F

Location of WhitstableLocation

Historic Weather in Whitstable — Graph

°F

Whitstable temperature yesterday

Maximum temperature yesterday: 51 °F (at 10:00 AM)
Minimum temperature yesterday: 40 °F (at 11:00 PM)
Average temperature yesterday: 47 °F

Past Weeks' High & Low Weather Summary

 TemperatureHumidityPressure
High51 °F (Feb 26, 10:00 AM)99% (Feb 16, 9:00 AM)30.76 "Hg (Feb 16, 9:00 AM)
Low30 °F (Feb 22, 6:00 AM)59% (Feb 24, 7:00 PM)29.26 "Hg (Feb 23, 12:00 AM)
Average41 °F86%29.90 "Hg
* Reported Feb 12 2:00 PM — Feb 27 2:00 PM, Whitstable, Weather by CustomWeather, © 2015

Note: Actual official high and low records may vary slightly from our data, if they occured in-between our weather recording intervals... More about our weather records

Advertising

Whitstable weather history for previous 24 hours

 ConditionsComfort  
Time TempWeatherWind HumidityBarometerVisibility
2:00 PM
Fri, Feb 27
44 °FQuite cool.12 mph63%30.14 "Hg19 mi
1:00 PM43 °FQuite cool.13 mph66%30.14 "Hg14 mi
12:00 PM43 °FQuite cool.12 mph72%30.14 "Hg11 mi
11:00 AM41 °FQuite cool.12 mph76%30.14 "Hg16 mi
10:00 AM40 °FQuite cool.13 mph77%30.13 "Hg9 mi
9:00 AM39 °FChilly.13 mph79%30.11 "Hg10 mi
8:00 AM37 °FChilly.10 mph83%30.09 "Hg13 mi
7:00 AM36 °FChilly.9 mph84%30.08 "Hg12 mi
6:00 AM36 °FChilly.10 mph83%30.06 "Hg11 mi
5:00 AM38 °FChilly.13 mph77%30.04 "Hg12 mi
4:00 AM37 °FChilly.10 mph79%30.02 "Hg11 mi
1:00 AM39 °FChilly.13 mph74%29.99 "Hg13 mi
12:00 AM40 °FChilly.13 mph73%29.97 "Hg12 mi
11:00 PM
Thu, Feb 26
40 °FQuite cool.16 mph72%29.96 "Hg12 mi
10:00 PM42 °FQuite cool.18 mph74%29.94 "Hg11 mi
9:00 PM44 °FQuite cool.18 mph76%29.91 "Hg11 mi
8:00 PM44 °FQuite cool.18 mph76%29.90 "Hg13 mi
7:00 PM44 °FQuite cool.10 mph87%29.89 "Hg8 mi
6:00 PM45 °FQuite cool.15 mph85%29.86 "Hg9 mi
5:00 PM45 °FRain showers. Cloudy.12 mph91%29.85 "Hg5 mi
4:00 PM51 °FRain. Cloudy.13 mph97%29.79 "Hg9 mi
3:00 PM51 °FRain. Cloudy.13 mph97%29.78 "Hg7 mi
Weather by CustomWeather, © 2015

See weather overviewHow to use our weather pages